This is the latest recevied weather packets stored in our database for station/object KD7CTY. If no packets are shown the sender has not sent any weather packets the latest 1 day(s).
| Time | Temp. | Humidity | Pressure | Rain* | Wind** | Luminosity | Snow |
|---|---|---|---|---|---|---|---|
| 1778102586 | 12.78° C | 85% | 1019.6 hPa | 0 mm | - | 137 W/m² | - |
| 1778101675 | 12.78° C | 84% | 1019.7 hPa | 0 mm | - | 150 W/m² | - |
| 1778100159 | 12.78° C | 85% | 1019.8 hPa | 0 mm | - | 148 W/m² | - |
| 1778099251 | 12.78° C | 84% | 1019.4 hPa | 0 mm | - | 166 W/m² | - |
| 1778096509 | 12.78° C | 83% | 1019.4 hPa | 0 mm | - | 224 W/m² | - |
| 1778095297 | 12.22° C | 84% | 1019.4 hPa | 0 mm | - | 210 W/m² | - |
| 1778094690 | 12.22° C | 85% | 1019.3 hPa | 0 mm | - | 221 W/m² | - |
| 1778093175 | 11.67° C | 86% | 1019.3 hPa | 0 mm | - | 248 W/m² | - |
| 1778092872 | 11.67° C | 86% | 1019.4 hPa | 0 mm | - | 193 W/m² | - |
| 1778092264 | 11.67° C | 86% | 1019.3 hPa | 0 mm | - | 196 W/m² | - |
| 1778089834 | 11.67° C | 88% | 1019.1 hPa | 0 mm | - | 217 W/m² | - |
| 1778088623 | 11.11° C | 90% | 1018.8 hPa | 0 mm | - | 212 W/m² | - |
| 1778086499 | 10.56° C | 95% | 1019.1 hPa | 0 mm | - | 114 W/m² | - |
| 1778085891 | 10.56° C | 97% | 1019 hPa | 0 mm | - | 177 W/m² | - |
| 1778085284 | 10.56° C | 98% | 1019 hPa | 0 mm | - | 90 W/m² | - |
| 1778084979 | 10.56° C | 98% | 1018.9 hPa | 0 mm | - | 97 W/m² | - |
| 1778084677 | 10.56° C | 99% | 1019 hPa | 0 mm | - | 66 W/m² | - |
| 1778084374 | 10.56° C | 99% | 1018.9 hPa | 0 mm | - | 70 W/m² | - |
| 1778083158 | 10.56° C | 99% | 1018.4 hPa | 0 mm | - | 105 W/m² | - |
| 1778080521 | 10.56° C | 96% | 1018.6 hPa | 0 mm | - | 69 W/m² | - |
| 1778079006 | 10.56° C | 97% | 1018.5 hPa | 0 mm | - | 69 W/m² | - |
| 1778078400 | 10.56° C | 97% | 1017.9 hPa | 0 mm | - | 92 W/m² | - |
| 1778078097 | 10.56° C | 98% | 1018.4 hPa | 0 mm | - | 86 W/m² | - |
| 1778077493 | 10.56° C | 98% | 1018.5 hPa | 0 mm | - | 63 W/m² | - |
| 1778075980 | 10.56° C | 99% | 1018.2 hPa | 0 mm | - | 27 W/m² | - |
* Rain latest hour (hover to see other rain measurements)
** Current wind speed in m/s (hover to see current wind gust speed)